• In Czech Republic
  • List of Countries
  • For 7 days
  • Water Temperature
  • Satellite Maps
  • Weather Map
  • Weather Widgets
  • user-avatar
    Login

    Hourly Weather Salgotarjan

    Today, 27 April, Friday

    Time Temperature Precipitation Wind Pressure Humidity
    00:00 +9°C° 0 mm 2 mps 732 mmHg 86%
    01:00 +9°C° 0 mm 2 mps 732 mmHg 86%
    02:00 +8°C° 0 mm 2 mps 732 mmHg 86%
    03:00 +7°C° 0 mm 2 mps 733 mmHg 86%
    04:00 +8°C° 0 mm 1 mps 733 mmHg 85%
    05:00 +9°C° 0 mm 1 mps 733 mmHg 80%
    06:00 +10°C° 0 mm 1 mps 733 mmHg 75%
    07:00 +12°C° 0 mm 1 mps 734 mmHg 69%
    08:00 +13°C° 0 mm 1 mps 734 mmHg 62%
    09:00 +15°C° 0 mm 1 mps 734 mmHg 55%
    10:00 +18°C° 0 mm 1 mps 734 mmHg 47%
    11:00 +19°C° 0 mm 1 mps 734 mmHg 45%
    12:00 +19°C° 0 mm 1 mps 734 mmHg 42%
    13:00 +19°C° 0 mm 2 mps 733 mmHg 40%
    14:00 +19°C° 0 mm 2 mps 733 mmHg 41%
    15:00 +19°C° 0 mm 2 mps 733 mmHg 42%
    16:00 +18°C° 0 mm 2 mps 732 mmHg 44%
    17:00 +17°C° 0 mm 2 mps 732 mmHg 52%
    18:00 +15°C° 0 mm 2 mps 732 mmHg 60%
    19:00 +13°C° 0 mm 2 mps 732 mmHg 68%
    20:00 +12°C° 0 mm 1 mps 732 mmHg 70%
    21:00 +12°C° 0 mm 1 mps 732 mmHg 72%
    22:00 +11°C° 0 mm 1 mps 732 mmHg 74%
    23:00 +11°C° 0 mm 1 mps 732 mmHg 75%

    Tomorrow, 28 April, Saturday

    Time Temperature Precipitation Wind Pressure Humidity
    00:00 +10°C° 0 mm 1 mps 732 mmHg 75%
    01:00 +10°C° 0 mm 1 mps 732 mmHg 75%
    02:00 +10°C° 0 mm 1 mps 732 mmHg 76%
    03:00 +9°C° 0 mm 1 mps 732 mmHg 76%
    04:00 +9°C° 0 mm 1 mps 732 mmHg 77%
    05:00 +11°C° 0 mm 1 mps 732 mmHg 73%
    06:00 +12°C° 0 mm 1 mps 732 mmHg 68%
    07:00 +14°C° 0 mm 1 mps 732 mmHg 64%
    08:00 +16°C° 0 mm 2 mps 732 mmHg 59%
    09:00 +18°C° 0 mm 2 mps 733 mmHg 54%
    10:00 +20°C° 0 mm 2 mps 733 mmHg 49%
    11:00 +21°C° 0 mm 2 mps 732 mmHg 48%
    12:00 +23°C° 0 mm 2 mps 732 mmHg 47%
    13:00 +24°C° 0 mm 3 mps 732 mmHg 46%
    14:00 +24°C° 0 mm 3 mps 732 mmHg 49%
    15:00 +24°C° 0 mm 3 mps 731 mmHg 52%
    16:00 +24°C° 0 mm 3 mps 731 mmHg 55%
    17:00 +21°C° 0.1 mm 3 mps 731 mmHg 63%
    18:00 +20°C° 0.1 mm 2 mps 731 mmHg 72%
    19:00 +18°C° 0.1 mm 2 mps 730 mmHg 81%
    20:00 +17°C° 0.6 mm 2 mps 731 mmHg 84%
    21:00 +16°C° 0.6 mm 2 mps 731 mmHg 88%
    22:00 +16°C° 0.6 mm 2 mps 731 mmHg 91%
    23:00 +15°C° 0.6 mm 1 mps 731 mmHg 92%

    Day after tomorrow, 29 April, Sunday

    Time Temperature Precipitation Wind Pressure Humidity
    00:00 +15°C° 0.6 mm 1 mps 731 mmHg 93%
    01:00 +15°C° 0.6 mm 1 mps 731 mmHg 94%
    02:00 +15°C° 0.2 mm 1 mps 731 mmHg 94%
    03:00 +15°C° 0.2 mm 1 mps 730 mmHg 94%
    04:00 +14°C° 0.2 mm 1 mps 730 mmHg 95%
    05:00 +15°C° 0.3 mm 2 mps 730 mmHg 91%
    06:00 +16°C° 0.3 mm 2 mps 731 mmHg 88%
    07:00 +17°C° 0.3 mm 2 mps 731 mmHg 85%
    08:00 +19°C° 0.1 mm 3 mps 731 mmHg 78%
    09:00 +20°C° 0.1 mm 3 mps 731 mmHg 71%
    10:00 +21°C° 0.1 mm 4 mps 731 mmHg 64%
    11:00 +22°C° 0 mm 4 mps 731 mmHg 60%
    12:00 +23°C° 0 mm 4 mps 730 mmHg 57%
    13:00 +25°C° 0 mm 5 mps 730 mmHg 53%
    14:00 +25°C° 0 mm 4 mps 730 mmHg 53%
    15:00 +25°C° 0 mm 4 mps 729 mmHg 54%
    16:00 +25°C° 0 mm 4 mps 729 mmHg 54%
    17:00 +23°C° 0 mm 4 mps 729 mmHg 60%
    18:00 +21°C° 0 mm 3 mps 728 mmHg 66%
    19:00 +19°C° 0 mm 2 mps 728 mmHg 71%
    20:00 +18°C° 0.1 mm 2 mps 728 mmHg 72%
    21:00 +17°C° 0.1 mm 2 mps 728 mmHg 74%
    22:00 +16°C° 0.1 mm 2 mps 728 mmHg 75%
    23:00 +15°C° 0 mm 2 mps 728 mmHg 76%

    30 April, Monday

    Time Temperature Precipitation Wind Pressure Humidity
    00:00 +15°C° 0 mm 2 mps 728 mmHg 77%
    01:00 +14°C° 0 mm 2 mps 728 mmHg 79%
    02:00 +13°C° 0 mm 2 mps 727 mmHg 79%
    03:00 +13°C° 0 mm 2 mps 727 mmHg 80%
    04:00 +13°C° 0 mm 2 mps 727 mmHg 81%
    05:00 +14°C° 0 mm 2 mps 727 mmHg 76%
    06:00 +15°C° 0 mm 2 mps 728 mmHg 72%
    07:00 +16°C° 0 mm 3 mps 728 mmHg 68%
    08:00 +18°C° 0.1 mm 3 mps 728 mmHg 66%
    09:00 +19°C° 0.1 mm 3 mps 728 mmHg 64%
    10:00 +20°C° 0.1 mm 4 mps 728 mmHg 61%
    11:00 +21°C° 0.1 mm 3 mps 728 mmHg 62%
    12:00 +21°C° 0.1 mm 3 mps 728 mmHg 62%
    13:00 +21°C° 0.1 mm 3 mps 729 mmHg 63%
    14:00 +21°C° 0.2 mm 3 mps 729 mmHg 64%
    15:00 +21°C° 0.2 mm 2 mps 729 mmHg 65%
    16:00 +23°C° 0.2 mm 2 mps 729 mmHg 66%
    17:00 +20°C° 0.6 mm 2 mps 729 mmHg 72%
    18:00 +19°C° 0.6 mm 1 mps 729 mmHg 79%
    19:00 +18°C° 0.6 mm 1 mps 729 mmHg 85%
    20:00 +16°C° 0.4 mm 1 mps 729 mmHg 87%
    21:00 +16°C° 0.4 mm 1 mps 729 mmHg 88%
    22:00 +15°C° 0.4 mm 1 mps 730 mmHg 90%
    23:00 +15°C° 0.8 mm 1 mps 730 mmHg 91%

    1 May, Tuesday

    Time Temperature Precipitation Wind Pressure Humidity
    00:00 +15°C° 0.8 mm 1 mps 730 mmHg 92%
    01:00 +15°C° 0.8 mm 1 mps 730 mmHg 93%
    02:00 +14°C° 0.5 mm 1 mps 730 mmHg 93%
    03:00 +14°C° 0.5 mm 1 mps 730 mmHg 92%
    04:00 +14°C° 0.5 mm 1 mps 730 mmHg 92%
    05:00 +15°C° 0 mm 1 mps 730 mmHg 90%
    06:00 +16°C° 0 mm 1 mps 730 mmHg 87%
    07:00 +18°C° 0 mm 1 mps 730 mmHg 84%
    08:00 +19°C° 0.2 mm 2 mps 730 mmHg 79%
    09:00 +20°C° 0.2 mm 2 mps 730 mmHg 74%
    10:00 +21°C° 0.2 mm 3 mps 731 mmHg 68%
    11:00 +22°C° 0.6 mm 3 mps 730 mmHg 67%
    12:00 +24°C° 0.6 mm 2 mps 730 mmHg 65%
    13:00 +24°C° 0.6 mm 2 mps 730 mmHg 64%
    14:00 +24°C° 0.4 mm 2 mps 730 mmHg 65%
    15:00 +24°C° 0.4 mm 2 mps 729 mmHg 66%
    16:00 +24°C° 0.4 mm 2 mps 729 mmHg 66%
    17:00 +23°C° 0.6 mm 2 mps 729 mmHg 72%
    18:00 +21°C° 0.6 mm 1 mps 729 mmHg 77%
    19:00 +20°C° 0.6 mm 1 mps 729 mmHg 82%
    20:00 +19°C° 0.2 mm 1 mps 729 mmHg 83%
    21:00 +19°C° 0.2 mm 1 mps 729 mmHg 85%
    22:00 +18°C° 0.2 mm 1 mps 729 mmHg 86%
    23:00 +18°C° 0.2 mm 1 mps 729 mmHg 87%

    2 May, Wednesday

    Time Temperature Precipitation Wind Pressure Humidity
    00:00 +16°C° 0.2 mm 1 mps 729 mmHg 89%
    01:00 +16°C° 0.2 mm 1 mps 729 mmHg 90%
    02:00 +15°C° 0.2 mm 1 mps 729 mmHg 90%
    03:00 +15°C° 0.2 mm 1 mps 729 mmHg 91%
    04:00 +15°C° 0.2 mm 1 mps 729 mmHg 92%
    05:00 +16°C° 0 mm 1 mps 729 mmHg 89%
    06:00 +19°C° 0 mm 1 mps 729 mmHg 86%
    07:00 +20°C° 0 mm 1 mps 729 mmHg 83%
    08:00 +22°C° 0 mm 1 mps 730 mmHg 74%
    09:00 +24°C° 0 mm 1 mps 730 mmHg 65%
    10:00 +26°C° 0 mm 1 mps 730 mmHg 56%
    11:00 +26°C° 0 mm 1 mps 730 mmHg 54%
    12:00 +27°C° 0 mm 1 mps 730 mmHg 51%
    13:00 +27°C° 0 mm 2 mps 729 mmHg 49%
    14:00 +27°C° 0 mm 2 mps 729 mmHg 50%
    15:00 +27°C° 0 mm 2 mps 729 mmHg 51%
    16:00 +27°C° 0 mm 2 mps 728 mmHg 52%
    17:00 +25°C° 0.2 mm 2 mps 728 mmHg 59%
    18:00 +23°C° 0.2 mm 1 mps 728 mmHg 66%
    19:00 +21°C° 0.2 mm 1 mps 728 mmHg 73%
    20:00 +20°C° 0.7 mm 1 mps 728 mmHg 77%
    21:00 +20°C° 0.7 mm 1 mps 728 mmHg 80%
    22:00 +19°C° 0.7 mm 1 mps 728 mmHg 83%
    23:00 +19°C° 0.5 mm 1 mps 727 mmHg 84%
    Show more